FW0249 Weather Reports


time (UTC)temp
C
wind
direction
speed
KPH
gust
KPH
rain 1hr
cm
rain 24hr
cm
rain mn
cm
humidity
%
barometer
mb
20260503213035 31 153 4.8 12.9 0.00 0.00 0.00 31 1012.4
20260503211533 31 92 1.6 6.4 0.00 0.00 0.00 30 1012.6
20260503210043 30 67 1.6 6.4 0.00 0.00 0.00 35 1012.6
20260503204528 30 261 0.0 9.7 0.00 0.00 0.00 33 1012.7
20260503203028 30 244 0.0 8.0 0.00 0.00 0.00 35 1012.7
20260503201533 30 238 3.2 8.0 0.00 0.00 0.00 34 1012.8
20260503200022 30 114 1.6 6.4 0.00 0.00 0.00 36 1013.0
20260503194518 30 92 1.6 8.0 0.00 0.00 0.00 35 1013.1
20260503193017 29 265 1.6 6.4 0.00 0.00 0.00 37 1013.3
20260503191512 29 161 0.0 8.0 0.00 0.00 0.00 37 1013.4
20260503190008 28 219 0.0 6.4 0.00 0.00 0.00 44 1013.5
20260503184504 27 204 0.0 6.4 0.00 0.00 0.00 42 1013.7
20260503183107 27 130 0.0 3.2 0.00 0.00 0.00 45 1013.7
20260503181557 27 112 1.6 9.7 0.00 0.00 0.00 43 1013.9
20260503180105 26 164 1.6 6.4 0.00 0.00 0.00 48 1014.0
20260503174550 26 29 1.6 8.0 0.00 0.00 0.00 43 1014.1
20260503173133 25 186 0.0 9.7 0.00 0.00 0.00 53 1014.1
20260503171547 24 265 1.6 9.7 0.00 0.00 0.00 48 1014.1
20260503081507 11 244 0.0 0.0 0.00 0.00 0.00 86 1015.7
20260503071557 13 244 0.0 0.0 0.00 0.00 0.00 82 1015.5
20260503060151 14 244 0.0 0.0 0.00 0.00 0.00 79 1015.4
20260503054551 14 244 0.0 0.0 0.00 0.00 0.00 77 1015.4
20260503053049 15 244 0.0 0.0 0.00 0.00 0.00 76 1015.5
20260503051549 15 244 0.0 0.0 0.00 0.00 0.00 75 1015.6
20260503050049 16 244 0.0 0.0 0.00 0.00 0.00 74 1015.6
20260503044553 16 244 0.0 0.0 0.00 0.00 0.00 72 1015.5
20260503043047 16 244 0.0 0.0 0.00 0.00 0.00 68 1015.3
20260503041547 17 244 0.0 0.0 0.00 0.00 0.00 68 1015.0
20260503040046 17 244 0.0 0.0 0.00 0.00 0.00 67 1014.8
20260503034548 18 244 0.0 0.0 0.00 0.00 0.00 64 1014.7
20260503033048 19 244 0.0 0.0 0.00 0.00 0.00 62 1014.4
20260503031555 20 244 0.0 0.0 0.00 0.00 0.00 59 1014.3
20260503030047 21 244 0.0 3.2 0.00 0.00 0.00 56 1014.1
20260503024547 22 244 0.0 0.0 0.00 0.00 0.00 54 1014.1
20260503023043 23 244 0.0 3.2 0.00 0.00 0.00 47 1014.1
20260503021546 23 244 0.0 4.8 0.00 0.00 0.00 46 1014.0
20260503020046 24 245 0.0 3.2 0.00 0.00 0.00 44 1014.2
20260503014546 24 245 0.0 3.2 0.00 0.00 0.00 42 1014.4
20260503013043 25 157 1.6 6.4 0.00 0.00 0.00 39 1014.5
20260503011544 25 261 0.0 9.7 0.00 0.00 0.00 40 1014.4
20260503010039 25 134 1.6 6.4 0.00 0.00 0.00 39 1014.3
20260503004537 26 215 1.6 4.8 0.00 0.00 0.00 38 1014.4
20260503003035 27 269 0.0 6.4 0.00 0.00 0.00 36 1014.5
20260503001535 27 263 0.0 4.8 0.00 0.00 0.00 37 1014.6
20260503000044 27 249 1.6 8.0 0.00 0.00 0.00 36 1014.6
20260502234532 27 221 1.6 9.7 0.00 0.00 0.00 35 1014.6
20260502233029 27 235 0.0 6.4 0.00 0.00 0.00 37 1014.8
20260502231527 28 215 0.0 11.3 0.00 0.00 0.00 37 1015.0
20260502230025 28 233 1.6 8.0 0.00 0.00 0.00 35 1015.2
20260502224521 28 215 0.0 8.0 0.00 0.00 0.00 40 1015.3
20260502223020 27 295 1.6 6.4 0.00 0.00 0.00 38 1015.4
20260502221522 27 78 3.2 11.3 0.00 0.00 0.00 35 1015.6
20260502220017 27 83 1.6 8.0 0.00 0.00 0.00 40 1015.5
20260502214515 27 12 3.2 9.7 0.00 0.00 0.00 37 1015.7